Temp
78 81 83 83 83 83 83 83 83 83 83 82 82 82 83 83 83 83 83 83 83 84 84 84 84 84 84 84 84 83 83 82 83 83 83 82 82 82 82 83 83 82 82
81 81 83 83 83 83 83 83 83 82 82 82 82 83 83 83 83 83 83 83 83 84 84 84 84 83 83 83 84 83 83 83 83 83 83 83 82 82 82 83 82 82 82
80 81 83 83 83 83 83 83 82 82 83 83 82 83 83 83 83 83 83 83 84 84 84 84 84 84 83 83 83 83 83 83 83 83 83 78 80 83 83 83 83 82 81
81 80 81 82 83 83 83 82 82 83 83 83 83 83 83 83 83 83 83 83 83 84 84 84 84 84 83 83 83 83 83 83 83 83 78 80 83 82 83 83 83 82 81
80 80 81 83 83 83 83 82 82 83 83 83 83 83 83 83 83 83 83 83 84 84 84 84 84 83 83 83 82 83 83 83 83 82 77 75 75 82 82 82 82 82 81
80 81 83 83 84 84 83 82 83 83 83 83 83 83 83 83 83 83 83 84 83 83 83 84 84 84 83 83 82 82 82 83 82 79 77 78 75 82 82 82 82 81 81
79 81 81 83 83 83 83 83 83 83 83 83 83 83 83 83 83 83 84 83 83 83 83 83 84 84 83 83 82 82 82 84 79 76 76 75 76 81 82 82 82 81 81
79 79 81 83 83 83 83 83 83 83 83 83 83 83 83 83 83 83 83 83 83 83 83 83 83 84 83 82 83 82 81 83 81 77 76 75 78 81 83 82 81 81 81
80 79 79 80 82 84 83 83 83 83 83 83 83 83 83 83 83 83 83 83 83 83 83 83 83 83 83 82 83 82 82 83 76 76 78 75 79 81 82 81 81 81 81
78 78 77 77 77 78 79 83 83 83 83 83 83 83 83 83 83 83 82 82 83 83 82 83 83 83 82 82 81 82 82 83 76 77 76 76 80 82 82 81 81 81 80
76 77 76 76 76 76 77 80 82 83 83 83 83 83 82 76 78 80 81 82 83 83 83 83 82 83 82 82 81 81 82 76 76 74 74 79 80 82 82 81 81 81 81
74 74 76 75 75 75 80 76 77 77 77 77 76 77 75 75 74 78 80 83 83 83 83 83 83 82 82 77 75 81 76 75 75 74 73 80 80 81 82 81 80 80 81
76 76 76 76 76 75 76 74 74 74 74 74 74 74 74 75 74 76 73 75 74 80 77 80 79 77 75 74 74 74 74 74 74 77 76 80 81 81 82 81 80 80 81
76 77 77 76 75 74 74 74 74 73 73 73 72 73 72 71 71 72 72 73 73 73 74 74 74 75 75 75 74 74 74 73 74 73 75 81 81 81 81 81 80 80 81
75 76 76 76 75 73 73 72 72 72 73 73 73 73 72 71 70 71 71 72 72 73 73 72 72 73 74 75 75 74 75 75 74 72 72 81 81 80 81 81 81 81 81
76 75 76 75 74 73 72 70 69 69 72 72 72 73 72 70 70 69 70 71 71 72 72 72 71 72 72 73 74 74 75 74 74 72 73 75 80 80 80 81 81 81 81
76 76 76 75 75 72 72 71 69 67 72 71 71 71 71 70 70 70 71 70 71 71 72 72 72 72 72 73 73 74 74 75 74 74 72 72 74 80 80 81 81 80 81
76 75 76 80 75 73 72 71 71 71 71 71 71 69 71 71 71 71 70 70 71 71 72 71 71 70 71 72 71 72 73 73 74 73 73 73 73 77 78 80 80 79 80
77 76 75 76 75 74 73 73 72 72 71 70 70 68 71 72 73 71 70 70 71 71 71 70 71 69 69 71 70 71 71 71 73 76 75 73 74 73 73 79 79 79 80
78 77 75 74 74 74 73 71 71 70 70 71 71 71 72 72 72 70 70 70 70 70 70 70 70 70 69 70 71 71 71 71 72 73 73 76 74 74 73 72 72 75 78
78 76 74 73 73 72 70 69 68 67 68 68 69 72 72 71 71 71 70 69 69 69 69 70 69 68 68 69 67 68 69 71 71 71 71 72 73 73 73 72 72 73 74
72 77 74 73 72 72 71 70 69 68 68 69 69 69 72 72 72 70 69 69 69 68 68 69 68 67 68 68 66 65 63 64 70 72 72 71 72 72 72 73 73 72 73
69 72 74 72 72 71 71 69 69 68 67 66 67 67 69 71 71 71 70 68 69 68 68 69 69 68 66 68 68 66 62 60 64 68 70 70 71 70 71 72 72 72 71
69 73 72 72 71 71 71 69 67 65 64 65 65 66 67 69 70 71 70 69 68 68 67 68 69 68 68 66 68 70 68 66 63 62 67 69 70 70 70 71 72 72 72
72 74 72 70 71 70 69 68 66 65 65 65 66 66 66 67 68 70 69 69 68 68 68 68 69 67 69 67 66 66 66 67 66 64 62 65 68 70 70 70 71 72 72
73 73 73 71 69 69 68 67 66 65 64 64 64 64 65 66 67 68 69 68 69 68 68 69 69 67 68 67 67 66 65 64 64 64 63 64 64 69 69 69 69 72 73
MSLP
1012.21 1012.22 1012.54 1012.82 1012.97 1013.08 1013.24 1013.43 1013.60 1013.80 1014.18 1014.19 1014.43 1014.39 1014.59 1014.61 1014.64 1014.93 1015.23 1015.44 1015.68 1015.69 1015.92 1015.99 1016.05 1016.21 1016.30 1016.47 1016.67 1016.69 1017.07 1017.30 1017.51 1017.70 1018.02 1018.21 1018.39 1018.57 1018.72 1018.90 1019.08 1019.12 1019.26
1011.46 1012.03 1012.38 1012.78 1013.01 1013.26 1013.46 1013.54 1013.75 1013.98 1014.14 1014.37 1014.53 1014.60 1014.67 1014.72 1014.90 1015.06 1015.30 1015.50 1015.76 1015.86 1015.98 1016.13 1016.17 1016.21 1016.47 1016.54 1016.81 1017.02 1017.23 1017.54 1017.68 1017.88 1018.24 1018.48 1018.61 1018.79 1018.95 1019.18 1019.40 1019.50 1019.55
1011.61 1012.02 1012.36 1012.62 1012.85 1013.28 1013.34 1013.69 1013.86 1014.00 1014.14 1014.26 1014.43 1014.77 1014.73 1014.88 1014.93 1015.22 1015.49 1015.61 1015.83 1016.03 1016.16 1016.21 1016.21 1016.28 1016.48 1016.71 1016.96 1017.12 1017.47 1017.81 1017.93 1018.12 1018.39 1018.75 1018.91 1019.04 1019.12 1019.33 1019.51 1019.74 1019.90
1011.14 1011.87 1012.21 1012.57 1012.97 1013.26 1013.35 1013.57 1013.83 1014.03 1014.12 1014.37 1014.42 1014.65 1014.75 1015.08 1015.06 1015.24 1015.58 1015.71 1016.01 1016.12 1016.27 1016.46 1016.40 1016.38 1016.58 1016.82 1017.06 1017.36 1017.70 1018.03 1018.16 1018.32 1018.67 1018.80 1018.89 1019.30 1019.38 1019.56 1019.73 1019.97 1020.10
1011.27 1011.62 1011.84 1012.21 1012.71 1013.06 1013.22 1013.48 1013.70 1013.97 1014.16 1014.43 1014.64 1014.83 1015.01 1014.98 1015.15 1015.43 1015.62 1015.78 1016.02 1016.28 1016.38 1016.58 1016.67 1016.63 1016.73 1016.78 1017.18 1017.38 1017.77 1018.10 1018.36 1018.58 1018.83 1019.02 1019.19 1019.34 1019.62 1019.80 1020.00 1020.22 1020.39
1011.27 1011.49 1011.77 1012.05 1012.43 1012.67 1013.09 1013.31 1013.59 1013.97 1014.27 1014.54 1014.76 1014.94 1015.11 1015.31 1015.41 1015.59 1015.74 1015.90 1016.00 1016.26 1016.49 1016.58 1016.83 1016.84 1016.89 1016.79 1017.22 1017.46 1017.72 1018.06 1018.57 1018.74 1018.95 1019.12 1019.39 1019.47 1019.71 1019.98 1020.07 1020.37 1020.54
1011.17 1011.35 1011.80 1012.08 1012.37 1012.66 1013.05 1013.39 1013.71 1014.02 1014.30 1014.59 1014.82 1015.13 1015.29 1015.52 1015.69 1015.75 1015.91 1016.05 1016.14 1016.22 1016.45 1016.62 1016.85 1016.97 1016.98 1016.86 1017.10 1017.50 1017.76 1017.99 1018.50 1018.89 1018.93 1019.21 1019.53 1019.61 1019.86 1020.06 1020.27 1020.45 1020.64
1010.84 1011.36 1011.80 1012.13 1012.22 1012.52 1012.91 1013.33 1013.61 1013.90 1014.20 1014.51 1014.80 1015.15 1015.41 1015.58 1015.81 1015.94 1016.01 1016.20 1016.17 1016.28 1016.39 1016.74 1016.89 1016.96 1017.04 1016.92 1017.08 1017.55 1017.79 1017.87 1018.24 1018.65 1018.85 1019.15 1019.33 1019.55 1019.82 1020.16 1020.50 1020.67 1020.85
1010.90 1011.47 1011.89 1012.02 1012.09 1012.49 1012.87 1013.23 1013.52 1013.86 1014.24 1014.59 1014.88 1015.24 1015.44 1015.56 1015.73 1015.92 1016.09 1016.17 1016.34 1016.40 1016.48 1016.69 1016.85 1016.93 1017.10 1017.10 1017.22 1017.44 1017.86 1018.05 1018.38 1018.66 1018.76 1019.16 1019.30 1019.49 1019.82 1020.20 1020.50 1020.79 1021.00
1011.47 1011.80 1011.94 1012.19 1012.23 1012.68 1012.97 1013.15 1013.54 1013.94 1014.26 1014.51 1014.85 1015.15 1015.34 1015.52 1015.59 1015.79 1016.15 1016.32 1016.29 1016.52 1016.70 1016.75 1016.75 1016.90 1017.06 1017.13 1017.31 1017.48 1017.74 1018.07 1018.32 1018.58 1018.78 1019.11 1019.19 1019.34 1019.66 1020.08 1020.39 1020.65 1020.98
1011.94 1012.14 1012.34 1012.30 1012.46 1012.86 1013.26 1013.35 1013.61 1013.90 1014.22 1014.37 1014.60 1014.90 1015.22 1015.48 1015.59 1015.76 1016.06 1016.28 1016.38 1016.44 1016.58 1016.72 1016.77 1016.85 1017.01 1017.07 1017.37 1017.60 1017.68 1018.06 1018.34 1018.55 1018.81 1019.03 1019.19 1019.27 1019.48 1019.93 1020.23 1020.51 1020.79
1012.09 1012.13 1012.23 1012.36 1012.65 1012.90 1013.00 1013.37 1013.62 1013.80 1013.96 1014.35 1014.50 1014.78 1015.04 1015.18 1015.28 1015.58 1015.79 1016.05 1016.27 1016.40 1016.51 1016.70 1016.77 1016.81 1016.99 1017.02 1017.51 1017.56 1017.83 1018.05 1018.37 1018.43 1018.61 1018.63 1019.04 1019.11 1019.31 1019.64 1020.08 1020.39 1020.59
1011.84 1012.08 1012.10 1012.15 1012.33 1012.68 1012.91 1013.44 1013.54 1013.85 1013.99 1014.16 1014.41 1014.79 1015.04 1015.23 1015.23 1015.31 1015.74 1015.92 1016.25 1016.34 1016.61 1016.53 1016.83 1016.87 1016.83 1017.15 1017.32 1017.65 1017.96 1018.09 1018.29 1018.29 1018.16 1018.29 1018.76 1018.98 1019.13 1019.44 1019.81 1020.21 1020.45
1011.82 1011.71 1012.03 1012.16 1012.41 1012.65 1012.93 1013.15 1013.29 1013.73 1013.92 1014.22 1014.31 1014.64 1015.00 1015.28 1015.34 1015.52 1015.59 1015.85 1016.00 1016.32 1016.58 1016.76 1016.88 1016.91 1017.00 1017.04 1017.16 1017.37 1017.64 1017.96 1018.28 1018.10 1018.11 1017.96 1018.33 1018.87 1018.90 1019.31 1019.63 1020.02 1020.30
1011.66 1011.70 1012.02 1012.25 1012.49 1012.64 1012.87 1012.87 1013.27 1013.67 1013.97 1014.11 1014.35 1014.39 1014.44 1014.86 1015.36 1015.34 1015.49 1015.64 1015.85 1016.21 1016.44 1016.76 1016.86 1016.80 1016.85 1016.97 1017.00 1017.11 1017.23 1017.68 1018.04 1018.30 1018.17 1018.11 1018.40 1018.70 1018.71 1019.07 1019.52 1019.81 1020.11
1011.66 1011.68 1011.83 1012.22 1012.47 1012.69 1012.86 1012.93 1013.37 1013.50 1013.55 1013.79 1014.16 1014.26 1014.29 1014.40 1014.77 1015.08 1015.25 1015.48 1015.64 1015.93 1016.19 1016.41 1016.75 1016.77 1016.78 1016.91 1016.85 1016.97 1016.99 1017.34 1017.63 1018.05 1018.20 1018.18 1018.42 1018.47 1018.54 1018.64 1019.13 1019.57 1019.89
1011.19 1011.60 1011.60 1012.04 1012.55 1012.62 1012.85 1012.99 1013.10 1013.25 1013.37 1013.69 1013.88 1014.00 1014.19 1014.38 1014.57 1014.72 1014.98 1015.30 1015.31 1015.74 1015.90 1016.22 1016.44 1016.58 1016.72 1016.69 1016.88 1016.82 1016.80 1016.97 1017.38 1017.67 1017.90 1018.08 1018.15 1018.14 1018.21 1018.48 1018.94 1019.38 1019.66
1010.59 1010.96 1011.53 1011.73 1012.17 1012.70 1012.88 1013.08 1013.11 1013.29 1013.42 1013.48 1013.51 1013.78 1013.98 1014.16 1014.27 1014.48 1014.88 1015.00 1014.89 1015.34 1015.63 1016.12 1016.41 1016.63 1016.69 1016.73 1016.86 1016.87 1016.91 1016.85 1016.88 1017.28 1017.72 1017.67 1017.74 1017.90 1018.09 1018.47 1018.89 1019.24 1019.51
1010.26 1010.79 1011.13 1011.35 1012.03 1012.51 1012.81 1012.75 1012.84 1012.88 1013.17 1013.17 1013.21 1013.54 1013.72 1013.76 1013.94 1014.15 1014.54 1014.59 1014.66 1014.99 1015.57 1015.91 1016.32 1016.51 1016.44 1016.73 1016.88 1016.88 1016.92 1016.99 1016.86 1016.69 1016.74 1017.09 1017.37 1017.64 1017.80 1017.92 1018.37 1018.67 1019.05
1010.52 1010.87 1011.23 1011.35 1011.74 1012.25 1012.43 1012.96 1012.92 1012.93 1013.02 1012.92 1012.98 1013.05 1013.10 1013.27 1013.32 1013.69 1014.18 1014.44 1014.56 1014.99 1015.33 1015.68 1015.95 1016.43 1016.30 1016.52 1016.83 1016.96 1016.95 1016.95 1016.74 1016.67 1016.70 1016.74 1017.10 1017.35 1017.44 1017.82 1018.11 1018.21 1018.75
1011.05 1010.72 1010.81 1011.16 1011.54 1012.10 1012.52 1013.08 1013.15 1013.03 1012.91 1013.02 1013.10 1012.83 1012.59 1012.76 1012.74 1013.16 1013.75 1014.16 1014.44 1014.76 1015.03 1015.34 1015.78 1016.19 1016.37 1016.43 1016.91 1017.11 1017.07 1017.00 1016.93 1016.77 1016.67 1016.73 1016.77 1017.05 1017.37 1017.57 1017.97 1018.07 1018.39
1011.34 1010.50 1010.76 1010.94 1011.39 1011.85 1012.35 1012.59 1012.64 1012.75 1012.78 1012.68 1012.63 1012.68 1012.41 1012.39 1012.39 1012.64 1013.18 1013.71 1014.14 1014.61 1014.86 1015.15 1015.53 1015.94 1016.10 1016.35 1016.71 1017.27 1017.42 1017.52 1016.97 1016.74 1016.68 1016.66 1016.66 1016.72 1017.04 1017.16 1017.50 1017.78 1018.03
1010.81 1010.70 1010.65 1011.10 1011.29 1011.67 1012.32 1012.38 1012.69 1012.82 1012.81 1012.86 1012.66 1012.39 1012.35 1012.34 1012.31 1012.26 1012.47 1013.16 1013.67 1014.15 1014.55 1014.76 1015.16 1015.46 1015.96 1016.14 1016.15 1016.55 1017.08 1017.39 1017.31 1016.86 1016.60 1016.48 1016.46 1016.63 1016.58 1016.70 1017.00 1017.31 1017.64
1010.99 1010.78 1010.74 1011.32 1011.57 1011.76 1012.36 1012.37 1012.83 1012.90 1013.09 1012.94 1012.74 1012.37 1012.15 1012.01 1012.07 1012.04 1012.16 1012.55 1013.11 1013.58 1014.08 1014.29 1014.65 1015.19 1015.30 1015.85 1016.03 1016.12 1016.26 1016.56 1017.15 1017.18 1016.44 1016.14 1016.22 1016.31 1016.37 1016.38 1016.52 1016.77 1017.06
1010.50 1011.16 1011.07 1011.70 1011.87 1012.02 1012.35 1012.53 1012.91 1012.92 1012.87 1012.78 1012.57 1012.21 1011.97 1011.73 1011.59 1011.52 1011.74 1012.28 1012.71 1013.15 1013.51 1013.88 1014.36 1014.78 1014.82 1015.17 1015.58 1015.95 1016.40 1016.71 1016.73 1017.03 1016.78 1016.27 1016.27 1016.07 1016.01 1016.08 1016.08 1016.31 1016.47
1011.03 1011.25 1011.39 1011.88 1012.17 1012.16 1012.40 1012.76 1012.70 1012.72 1012.69 1012.69 1012.43 1012.09 1011.82 1011.42 1011.33 1011.27 1011.35 1011.95 1012.34 1012.72 1013.14 1013.47 1013.84 1014.32 1014.55 1014.74 1015.24 1015.63 1015.97 1016.45 1016.60 1016.87 1016.92 1017.02 1017.15 1016.16 1015.84 1015.88 1016.02 1015.93 1016.11
Wind_Speed
9 10 14 14 15 16 16 16 16 15 15 17 17 18 17 17 18 17 16 15 14 13 12 13 12 10 10 11 12 14 15 16 18 18 17 17 17 16 15 15 14 12 16
16 13 17 16 15 15 15 16 16 15 15 15 15 16 16 17 17 16 14 14 13 12 12 11 11 11 10 11 12 15 16 15 16 17 17 15 15 15 16 15 14 12 15
15 13 14 17 17 15 16 16 15 15 16 15 15 15 15 14 16 15 14 13 13 11 10 10 10 11 12 11 12 15 16 15 15 16 16 5 6 12 16 15 15 15 14
17 13 13 16 15 15 15 15 15 15 16 15 15 14 15 14 14 13 12 12 10 11 10 9 9 11 12 10 10 14 15 14 15 16 6 6 9 15 15 15 15 15 14
14 11 14 18 16 16 16 15 15 15 15 15 14 14 13 14 14 12 11 10 9 8 9 8 7 9 10 11 9 14 14 13 13 11 5 5 5 12 14 15 14 14 12
13 12 16 18 17 16 16 16 15 15 15 14 14 13 12 11 12 12 9 8 8 7 8 8 6 8 9 10 10 12 13 12 10 4 3 7 5 13 15 14 14 14 12
14 12 12 17 15 15 15 15 15 14 14 14 13 12 11 10 10 9 8 6 6 7 7 7 7 8 9 10 10 11 11 12 5 3 5 6 6 13 14 13 14 14 12
16 12 12 16 15 14 15 15 15 15 14 14 13 12 11 10 9 8 7 5 6 5 7 7 8 9 9 10 11 9 9 11 6 5 6 5 12 14 14 13 13 13 12
13 11 8 10 14 16 14 14 15 14 13 12 12 11 11 11 10 8 7 7 5 5 6 8 8 8 9 8 10 12 8 8 5 3 5 4 14 14 16 15 13 13 12
10 9 8 6 7 7 7 13 13 12 13 14 13 13 12 11 10 9 6 5 7 6 6 7 9 9 8 8 8 10 9 9 4 2 4 5 15 17 17 16 15 13 13
6 8 7 6 6 6 5 8 11 14 14 15 14 14 10 4 5 6 7 8 7 8 8 8 8 8 9 9 8 9 10 3 3 2 3 10 15 17 18 16 15 15 13
9 8 8 8 7 7 6 5 6 6 5 5 5 6 5 6 5 6 7 9 9 9 9 9 8 8 9 3 2 8 3 4 3 3 3 15 15 16 17 16 15 16 15
12 9 9 10 8 8 6 4 3 3 3 4 6 5 4 3 3 3 3 3 2 7 2 4 4 3 4 3 3 3 4 4 2 4 8 15 16 17 18 17 17 16 16
12 12 11 8 8 6 5 6 5 4 3 3 5 6 4 3 3 3 3 4 4 3 4 3 3 4 4 4 4 5 5 4 3 3 5 16 16 16 18 17 17 17 16
8 9 9 8 8 7 7 5 4 5 4 4 4 6 5 5 4 3 3 4 3 3 4 4 3 4 4 5 5 5 5 5 5 4 3 17 14 14 16 17 16 17 16
6 7 8 8 7 6 5 6 5 4 5 4 4 5 6 5 5 5 4 4 4 4 4 4 4 4 4 4 5 5 5 5 5 7 5 7 15 15 16 17 18 17 17
7 7 9 7 6 7 7 6 4 5 5 5 5 6 6 6 6 5 4 4 4 4 5 4 4 4 3 3 5 5 4 5 5 6 7 4 5 14 16 16 16 16 16
10 11 8 7 7 7 6 4 4 4 4 5 5 5 6 7 7 5 4 4 5 4 3 4 4 4 4 4 3 4 4 4 5 5 8 7 6 5 11 15 14 15 15
13 10 9 8 8 8 6 5 5 4 4 4 3 4 7 8 8 6 4 5 5 4 4 4 3 4 3 3 4 3 3 3 5 4 6 6 6 5 5 11 13 14 16
12 10 8 6 7 7 5 2 1 1 2 3 4 4 6 7 9 7 4 5 4 4 4 3 4 4 3 4 3 3 3 3 3 4 4 4 5 6 5 5 6 5 16
6 9 9 8 7 5 2 2 1 3 2 2 3 4 3 6 8 9 6 5 4 5 6 6 4 5 3 3 3 1 2 3 4 4 3 4 5 6 8 8 7 5 7
7 11 7 8 7 5 3 2 2 2 3 3 2 4 4 4 4 5 6 6 6 4 5 5 5 3 3 4 4 1 1 3 2 4 4 4 6 4 6 8 8 9 7
7 6 9 7 7 6 4 2 2 2 2 3 3 3 3 6 7 6 7 7 7 6 6 6 5 6 4 3 5 5 2 4 1 2 3 4 4 4 5 7 8 8 8
8 8 6 6 6 5 4 3 2 2 1 2 3 3 4 4 6 6 6 6 6 6 6 6 5 5 5 5 3 3 1 3 3 1 2 1 3 5 5 5 7 8 8
8 4 7 6 6 6 5 5 3 2 3 3 4 5 6 5 6 6 6 6 6 5 6 6 5 5 4 4 3 3 3 1 2 2 1 5 3 3 4 5 6 6 8
4 7 10 8 5 6 6 4 4 2 3 3 3 3 4 3 4 5 6 6 6 6 6 7 6 6 7 5 3 3 4 4 3 3 1 3 5 4 4 4 4 5 5
Wind_Direction
156 152 148 147 144 137 131 124 118 111 113 112 114 112 110 111 115 118 120 121 122 125 125 123 122 110 115 120 130 130 126 123 123 124 124 125 123 123 117 116 112 115 116
143 155 151 152 146 144 136 129 128 126 121 118 115 113 116 112 112 115 123 125 126 129 130 130 123 113 119 122 132 132 129 129 128 126 124 124 124 128 120 118 117 117 116
142 153 152 152 151 152 142 140 137 135 130 125 123 123 118 122 121 117 118 120 123 124 126 133 126 116 117 122 132 133 132 133 130 128 120 102 126 137 124 125 128 121 122
146 153 153 151 155 159 152 148 145 143 137 136 134 134 132 133 128 124 128 123 127 130 131 137 131 123 122 126 130 134 137 140 138 132 121 135 120 128 127 128 130 132 127
145 152 153 154 159 162 159 157 155 151 146 143 143 142 140 137 136 138 137 135 134 138 140 145 141 130 132 130 131 138 143 147 147 134 126 119 123 131 133 135 134 131 132
146 151 153 154 158 159 160 161 161 155 151 150 149 147 142 143 144 144 144 147 140 145 158 154 166 149 145 134 135 146 153 150 160 151 150 151 121 138 139 140 140 136 139
147 147 152 151 150 151 157 160 160 158 154 153 150 152 150 151 151 149 152 152 161 151 156 166 176 173 164 150 142 153 161 153 154 130 147 136 145 147 145 148 145 143 145
146 151 157 150 143 147 155 160 160 161 159 157 158 159 159 159 160 161 159 164 162 160 155 167 177 181 185 170 152 145 173 169 153 141 148 143 154 156 151 146 147 147 152
142 146 151 151 150 150 153 157 158 160 161 159 160 165 167 169 170 171 173 165 176 170 175 174 176 186 192 198 165 146 182 172 127 121 150 155 157 156 153 157 157 155 158
139 142 147 158 142 142 151 152 154 158 162 166 170 175 175 176 176 175 175 187 177 186 193 197 184 194 195 202 187 157 173 189 171 152 164 169 165 161 161 165 162 166 164
137 148 153 147 143 140 133 156 155 167 173 177 179 179 178 168 181 190 179 202 208 196 199 206 201 200 199 205 193 164 163 171 186 182 161 181 173 170 166 169 169 170 175
159 166 168 157 159 154 154 149 156 176 168 172 171 179 173 178 175 183 199 213 217 210 204 205 210 202 208 184 186 174 143 183 188 209 170 178 178 177 171 172 172 177 180
173 173 179 170 166 160 152 162 171 165 175 169 171 180 179 172 209 175 180 202 186 213 224 192 193 202 198 189 195 169 176 183 210 166 182 188 186 184 176 179 176 184 185
171 181 179 167 160 161 156 176 175 169 174 168 169 167 156 155 157 174 171 199 184 190 188 216 197 191 208 201 222 200 186 185 171 180 171 196 188 192 180 185 182 188 193
178 176 177 169 167 170 171 171 160 170 179 184 178 181 164 170 184 176 192 185 190 187 183 206 206 199 202 218 221 214 197 188 189 175 198 198 194 196 183 187 192 193 197
187 182 172 174 168 163 181 165 175 179 191 173 193 197 192 180 181 187 190 195 200 192 195 188 200 205 205 211 219 214 213 186 176 167 198 188 200 196 192 190 196 198 203
180 185 178 170 169 165 182 179 182 204 195 188 194 194 186 193 193 188 191 192 189 196 196 187 207 210 198 198 212 215 227 217 175 180 190 200 214 217 201 197 197 200 207
163 169 178 167 158 164 181 190 180 202 199 212 189 190 200 200 190 191 191 203 192 188 188 175 183 209 188 186 205 222 226 207 196 205 197 196 199 200 209 203 206 209 212
164 169 175 159 166 168 178 178 194 191 205 220 211 183 199 199 199 183 193 212 185 178 185 182 186 199 168 187 211 212 209 223 197 210 207 194 189 182 197 203 204 217 222
168 166 173 176 168 176 168 140 143 175 215 221 217 226 226 208 195 181 192 205 193 174 197 182 172 202 187 183 207 178 211 234 217 202 207 204 186 177 181 168 215 202 236
194 171 177 171 173 145 152 152 189 238 254 235 212 236 176 211 194 184 193 192 200 198 194 188 168 188 218 153 121 2 322 251 237 233 215 224 200 189 178 186 208 213 232
270 190 159 160 157 160 158 167 148 161 260 261 246 247 232 256 233 189 181 190 183 204 197 181 176 159 187 172 150 122 187 306 290 240 220 212 211 175 188 196 197 207 207
219 274 165 160 157 152 160 109 66 38 349 339 311 303 237 203 218 211 197 188 188 184 199 185 184 175 168 191 194 142 146 204 216 294 240 212 214 200 208 204 203 203 201
230 255 131 144 138 139 145 107 144 199 249 252 262 256 283 259 229 216 200 192 187 183 186 191 185 183 156 186 203 175 123 143 161 336 303 258 192 223 207 209 204 197 193
202 217 126 131 129 129 119 122 148 189 221 251 265 279 280 262 223 216 191 190 184 177 193 187 186 181 180 148 160 143 206 106 76 143 226 347 340 241 221 208 208 199 199
255 138 131 132 128 129 130 141 113 55 335 319 292 284 281 262 235 213 194 185 185 180 182 198 201 194 190 187 150 159 162 178 169 145 217 233 257 273 225 194 206 217 208